Weather History for Torrington, WY

Change the Weather History Date:

Friday, December 14, 2012

  Actual Average Record
Temperature  
Mean Temperature 32 °F 27 °F  
Max Temperature 46 °F 39 °F 63 °F (1998)
Min Temperature 18 °F 14 °F -13 °F (2008)
Degree Days  
Heating Degree Days 33 38  
Month to date heating degree days 402 521  
Since 1 July heating degree days 1745 2104  
Cooling Degree Days 0 0  
Month to date cooling degree days 0 0  
Year to date cooling degree days 1021 678  
Moisture  
Dew Point 16 °F    
Average Humidity 56    
Maximum Humidity 80    
Minimum Humidity 31    
Precipitation  
Precipitation 0.00 in 0.01 in 0.03 in (2007)
Month to date precipitation T 0.19  
Year to date precipitation 7.00 14.03  
Sea Level Pressure  
Sea Level Pressure 29.71 in    
Wind  
Wind Speed 5 mph (North)    
Max Wind Speed 10 mph    
Max Gust Speed 13 mph    
Visibility 10 miles    
Events      
T = Trace of Precipitation, MM = Missing Value Source: NWS Daily Summary

Daily Weather History Graph

Daily Weather History Graph

Search for Another Location

Airport:

Trip Planner

Search our weather history database for the weather conditions in past years. The results will help you decide how hot, cold, wet, or windy it might be!

Date:

Astronomy

Dec. 14, 2012 Rise Set
Actual Time 7:17 AM MST 4:25 PM MST
Civil Twilight 6:45 AM MST 4:57 PM MST
Nautical Twilight 6:10 AM MST 5:32 PM MST
Astronomical Twilight 5:36 AM MST 6:06 PM MST
Moon 8:23 AM MST (12/14) 6:22 PM MST (12/14)
Length of Visible Light 10h 11m
Length of Day
9h 08m
Waxing Crescent, 3% of the Moon is Illuminated
Dec 14
Waxing Crescent
Dec 19
First Quarter
Dec 28
Full
Jan 4
Last Quarter
Jan 11
New

Hourly Weather History & Observations

Time (MST) Temp. Windchill Dew Point Humidity Pressure Visibility Wind Dir Wind Speed Gust Speed Precip Events Conditions
12:53 AM 30.0 °F 22.4 °F 16.0 °F 56% 29.86 in 10.0 mi ESE 8.1 mph - N/A   Clear
1:53 AM 25.0 °F 17.1 °F 15.1 °F 66% 29.85 in 10.0 mi ESE 6.9 mph - N/A   Clear
2:53 AM 27.0 °F 20.5 °F 15.1 °F 61% 29.83 in 10.0 mi NW 5.8 mph - N/A   Clear
3:53 AM 23.0 °F - 14.0 °F 68% 29.85 in 10.0 mi Calm Calm - N/A   Clear
4:53 AM 19.9 °F 12.1 °F 12.9 °F 74% 29.86 in 10.0 mi WNW 5.8 mph - N/A   Clear
5:53 AM 19.9 °F 13.4 °F 12.9 °F 74% 29.86 in 10.0 mi North 4.6 mph - N/A   Clear
6:53 AM 19.0 °F - 12.9 °F 77% 29.85 in 10.0 mi Calm Calm - N/A   Clear
7:53 AM 18.0 °F 11.1 °F 12.9 °F 81% 29.85 in 10.0 mi West 4.6 mph - N/A   Clear
8:53 AM 23.0 °F - 16.0 °F 74% 29.82 in 10.0 mi Calm Calm - N/A   Clear
9:53 AM 28.0 °F 20.8 °F 18.0 °F 66% 29.79 in 9.0 mi WSW 6.9 mph - N/A   Clear
10:53 AM 30.9 °F 25.2 °F 17.1 °F 57% 29.75 in 10.0 mi NNW 5.8 mph - N/A   Clear
11:53 AM 37.0 °F 33.3 °F 18.0 °F 46% 29.69 in 10.0 mi NNW 4.6 mph - N/A   Clear
12:53 PM 41.0 °F 36.4 °F 17.1 °F 38% 29.62 in 10.0 mi NNW 6.9 mph - N/A   Clear
1:53 PM 45.0 °F 41.2 °F 16.0 °F 31% 29.59 in 10.0 mi NNE 6.9 mph - N/A   Clear
2:53 PM 45.0 °F 43.5 °F 17.1 °F 33% 29.56 in 10.0 mi NNE 3.5 mph - N/A   Mostly Cloudy
3:53 PM 42.1 °F 40.2 °F 17.1 °F 37% 29.56 in 10.0 mi North 3.5 mph - N/A   Mostly Cloudy
4:53 PM 37.0 °F 34.5 °F 18.0 °F 46% 29.60 in 10.0 mi SE 3.5 mph - N/A   Scattered Clouds
5:53 PM 32.0 °F 26.4 °F 17.1 °F 54% 29.62 in 10.0 mi East 5.8 mph - N/A   Mostly Cloudy
6:53 PM 30.0 °F 25.2 °F 17.1 °F 59% 29.62 in 10.0 mi ENE 4.6 mph - N/A   Mostly Cloudy
7:53 PM 28.9 °F 23.9 °F 17.1 °F 61% 29.62 in 10.0 mi East 4.6 mph - N/A   Clear
8:53 PM 30.9 °F 24.3 °F 18.0 °F 59% 29.62 in 10.0 mi North 6.9 mph - N/A   Overcast
9:53 PM 30.9 °F 25.2 °F 18.0 °F 59% 29.61 in 10.0 mi WNW 5.8 mph - N/A   Mostly Cloudy
10:53 PM 30.0 °F 25.2 °F 18.0 °F 61% 29.63 in 10.0 mi West 4.6 mph - N/A   Overcast
11:53 PM 30.0 °F 22.4 °F 18.0 °F 61% 29.62 in 10.0 mi WNW 8.1 mph - N/A   Overcast